Time,TemperatureF,DewpointF,PressureIn,WindDirection,WindDirectionDegrees,WindSpeedMPH,WindSpeedGustMPH,Humidity,HourlyPrecipIn,Conditions,Clouds,dailyrainin,SoftwareType,DateUTC
2013-12-02 00:03:00,33.1,20.0,29.91,WSW,237,0.0,13.0,58,0.00,,,0.00,weatherlink.com 1.10,2013-12-02 07:03:00,
2013-12-02 00:18:00,33.2,19.0,29.91,SSW,195,7.0,15.0,57,0.00,,,0.00,weatherlink.com 1.10,2013-12-02 07:18:00,
2013-12-02 00:33:00,34.1,20.0,29.91,SSW,204,0.0,11.0,56,0.00,,,0.00,weatherlink.com 1.10,2013-12-02 07:33:00,
2013-12-02 00:48:00,33.4,20.0,29.90,West,267,0.0,10.0,58,0.00,,,0.00,weatherlink.com 1.10,2013-12-02 07:48:00,
2013-12-02 01:03:00,33.0,20.0,29.90,SSW,198,0.0,10.0,59,0.00,,,0.00,weatherlink.com 1.10,2013-12-02 08:03:00,
2013-12-02 01:18:00,33.3,19.0,29.90,WSW,242,0.0,5.0,55,0.00,,,0.00,weatherlink.com 1.10,2013-12-02 08:18:00,
2013-12-02 01:33:00,33.6,18.0,29.90,West,280,0.0,5.0,53,0.00,,,0.00,weatherlink.com 1.10,2013-12-02 08:33:00,
2013-12-02 01:48:00,33.3,19.0,29.90,SW,221,0.0,6.0,55,0.00,,,0.00,weatherlink.com 1.10,2013-12-02 08:48:00,
2013-12-02 02:03:00,33.4,19.0,29.90,WSW,250,1.0,10.0,55,0.00,,,0.00,weatherlink.com 1.10,2013-12-02 09:03:00,
2013-12-02 02:18:00,33.3,19.0,29.89,South,184,0.0,11.0,55,0.00,,,0.00,weatherlink.com 1.10,2013-12-02 09:18:00,
2013-12-02 02:33:00,33.6,19.0,29.88,SSW,200,1.0,15.0,55,0.00,,,0.00,weatherlink.com 1.10,2013-12-02 09:33:00,
2013-12-02 02:48:00,33.3,19.0,29.88,WSW,244,3.0,10.0,55,0.00,,,0.00,weatherlink.com 1.10,2013-12-02 09:48:00,
2013-12-02 03:03:00,32.6,17.0,29.85,North,355,2.0,9.0,54,0.00,,,0.00,weatherlink.com 1.10,2013-12-02 10:03:00,
2013-12-02 03:20:00,33.2,18.0,29.85,SW,230,4.0,13.0,55,0.00,,,0.00,weatherlink.com 1.10,2013-12-02 10:20:00,
2013-12-02 03:33:00,32.7,18.0,29.84,WSW,248,4.0,11.0,56,0.00,,,0.00,weatherlink.com 1.10,2013-12-02 10:33:00,
2013-12-02 03:48:00,33.1,18.0,29.85,West,268,0.0,8.0,54,0.00,,,0.00,weatherlink.com 1.10,2013-12-02 10:48:00,
2013-12-02 04:03:00,31.7,18.0,29.83,WSW,239,0.0,7.0,58,0.00,,,0.00,weatherlink.com 1.10,2013-12-02 11:03:00,
2013-12-02 04:18:00,31.2,18.0,29.84,SW,236,1.0,8.0,59,0.00,,,0.00,weatherlink.com 1.10,2013-12-02 11:18:00,
2013-12-02 04:33:00,30.7,18.0,29.83,SW,221,0.0,11.0,60,0.00,,,0.00,weatherlink.com 1.10,2013-12-02 11:33:00,
2013-12-02 04:49:00,30.9,18.0,29.83,WSW,251,7.0,12.0,60,0.00,,,0.00,weatherlink.com 1.10,2013-12-02 11:49:00,
2013-12-02 05:04:00,31.4,18.0,29.83,SSW,194,2.0,15.0,59,0.00,,,0.00,weatherlink.com 1.10,2013-12-02 12:04:00,
2013-12-02 05:19:00,31.3,18.0,29.82,WSW,248,4.0,14.0,59,0.00,,,0.00,weatherlink.com 1.10,2013-12-02 12:19:00,
2013-12-02 05:34:00,31.7,18.0,29.82,SW,233,3.0,17.0,58,0.00,,,0.00,weatherlink.com 1.10,2013-12-02 12:34:00,
2013-12-02 05:49:00,31.9,18.0,29.80,WSW,244,0.0,9.0,57,0.00,,,0.00,weatherlink.com 1.10,2013-12-02 12:49:00,
2013-12-02 06:05:00,31.8,18.0,29.80,WSW,257,6.0,20.0,58,0.00,,,0.00,weatherlink.com 1.10,2013-12-02 13:05:00,
2013-12-02 06:19:00,31.5,18.0,29.81,SW,236,8.0,15.0,58,0.00,,,0.00,weatherlink.com 1.10,2013-12-02 13:19:00,
2013-12-02 06:34:00,31.1,18.0,29.80,WSW,254,0.0,10.0,59,0.00,,,0.00,weatherlink.com 1.10,2013-12-02 13:34:00,
2013-12-02 06:49:00,31.6,18.0,29.80,WSW,250,0.0,16.0,58,0.00,,,0.00,weatherlink.com 1.10,2013-12-02 13:49:00,
2013-12-02 07:06:00,31.7,19.0,29.80,SSE,158,0.0,9.0,59,0.00,,,0.00,weatherlink.com 1.10,2013-12-02 14:06:00,
2013-12-02 07:19:00,31.7,19.0,29.79,West,263,0.0,6.0,59,0.00,,,0.00,weatherlink.com 1.10,2013-12-02 14:19:00,
2013-12-02 07:34:00,32.1,19.0,29.78,West,273,0.0,10.0,58,0.00,,,0.00,weatherlink.com 1.10,2013-12-02 14:34:00,
2013-12-02 07:49:00,32.8,19.0,29.78,SW,215,0.0,6.0,57,0.00,,,0.00,weatherlink.com 1.10,2013-12-02 14:49:00,
2013-12-02 08:05:00,32.9,19.0,29.79,SSW,195,0.0,9.0,56,0.00,,,0.00,weatherlink.com 1.10,2013-12-02 15:05:00,
2013-12-02 08:19:00,34.0,19.0,29.79,SW,232,1.0,12.0,54,0.00,,,0.00,weatherlink.com 1.10,2013-12-02 15:19:00,
2013-12-02 08:34:00,35.1,18.0,29.78,SW,223,6.0,11.0,51,0.00,,,0.00,weatherlink.com 1.10,2013-12-02 15:34:00,
2013-12-02 08:50:00,36.1,19.0,29.77,WSW,237,2.0,9.0,50,0.00,,,0.00,weatherlink.com 1.10,2013-12-02 15:50:00,
2013-12-02 09:05:00,36.4,18.0,29.77,SW,236,2.0,9.0,48,0.00,,,0.00,weatherlink.com 1.10,2013-12-02 16:05:00,
2013-12-02 09:19:00,37.3,18.0,29.77,WSW,248,1.0,12.0,45,0.00,,,0.00,weatherlink.com 1.10,2013-12-02 16:19:00,
2013-12-02 09:34:00,39.0,19.0,29.76,SSW,202,2.0,8.0,45,0.00,,,0.00,weatherlink.com 1.10,2013-12-02 16:34:00,
2013-12-02 09:50:00,39.1,19.0,29.76,South,186,2.0,14.0,45,0.00,,,0.00,weatherlink.com 1.10,2013-12-02 16:50:00,
2013-12-02 10:05:00,40.8,19.0,29.75,South,183,8.0,9.0,42,0.00,,,0.00,weatherlink.com 1.10,2013-12-02 17:05:00,
2013-12-02 10:20:00,42.0,19.0,29.75,South,183,0.0,4.0,40,0.00,,,0.00,weatherlink.com 1.10,2013-12-02 17:20:00,
2013-12-02 10:35:00,41.2,17.0,29.74,West,269,1.0,15.0,37,0.00,,,0.00,weatherlink.com 1.10,2013-12-02 17:35:00,
2013-12-02 10:50:00,40.4,15.0,29.72,WSW,244,0.0,9.0,36,0.00,,,0.00,weatherlink.com 1.10,2013-12-02 17:50:00,
2013-12-02 11:05:00,40.3,15.0,29.71,West,259,0.0,24.0,35,0.00,,,0.00,weatherlink.com 1.10,2013-12-02 18:05:00,
2013-12-02 11:20:00,39.4,16.0,29.70,WSW,250,2.0,19.0,38,0.00,,,0.00,weatherlink.com 1.10,2013-12-02 18:20:00,
2013-12-02 11:35:00,41.2,17.0,29.69,WSW,244,0.0,6.0,38,0.00,,,0.00,weatherlink.com 1.10,2013-12-02 18:35:00,
2013-12-02 11:51:00,43.3,17.0,29.68,NNW,338,0.0,10.0,35,0.00,,,0.00,weatherlink.com 1.10,2013-12-02 18:51:00,
2013-12-02 12:05:00,42.8,17.0,29.67,West,260,6.0,17.0,36,0.00,,,0.00,weatherlink.com 1.10,2013-12-02 19:05:00,
2013-12-02 12:20:00,42.1,17.0,29.66,WSW,255,3.0,13.0,37,0.00,,,0.00,weatherlink.com 1.10,2013-12-02 19:20:00,
2013-12-02 12:35:00,41.1,18.0,29.65,SW,220,6.0,15.0,40,0.00,,,0.00,weatherlink.com 1.10,2013-12-02 19:35:00,
2013-12-02 12:50:00,40.6,17.0,29.65,SW,217,4.0,12.0,39,0.00,,,0.00,weatherlink.com 1.10,2013-12-02 19:50:00,
2013-12-02 13:05:00,40.9,18.0,29.66,SE,138,4.0,10.0,40,0.00,,,0.00,weatherlink.com 1.10,2013-12-02 20:05:00,
2013-12-02 13:20:00,40.9,18.0,29.65,WSW,253,4.0,10.0,40,0.00,,,0.00,weatherlink.com 1.10,2013-12-02 20:20:00,
2013-12-02 13:35:00,40.2,19.0,29.64,WSW,251,8.0,15.0,42,0.00,,,0.00,weatherlink.com 1.10,2013-12-02 20:35:00,
2013-12-02 13:51:00,40.0,18.0,29.64,SW,223,0.0,12.0,42,0.00,,,0.00,weatherlink.com 1.10,2013-12-02 20:51:00,
2013-12-02 14:05:00,39.8,18.0,29.63,WSW,240,0.0,15.0,42,0.00,,,0.00,weatherlink.com 1.10,2013-12-02 21:05:00,
2013-12-02 14:20:00,39.6,18.0,29.65,WSW,251,3.0,10.0,42,0.00,,,0.00,weatherlink.com 1.10,2013-12-02 21:20:00,
2013-12-02 14:35:00,39.5,19.0,29.64,WSW,242,0.0,7.0,43,0.00,,,0.00,weatherlink.com 1.10,2013-12-02 21:35:00,
2013-12-02 14:50:00,38.6,18.0,29.64,WSW,248,4.0,9.0,43,0.00,,,0.00,weatherlink.com 1.10,2013-12-02 21:50:00,
2013-12-02 15:05:00,38.0,17.0,29.64,SW,229,0.0,15.0,43,0.00,,,0.00,weatherlink.com 1.10,2013-12-02 22:05:00,
2013-12-02 15:20:00,37.9,18.0,29.65,WSW,244,1.0,7.0,44,0.00,,,0.00,weatherlink.com 1.10,2013-12-02 22:20:00,
2013-12-02 15:35:00,36.9,17.0,29.64,SW,224,0.0,13.0,44,0.00,,,0.00,weatherlink.com 1.10,2013-12-02 22:35:00,
2013-12-02 15:50:00,35.6,17.0,29.64,West,261,0.0,4.0,46,0.00,,,0.00,weatherlink.com 1.10,2013-12-02 22:50:00,
2013-12-02 16:06:00,34.6,16.0,29.64,West,261,2.0,7.0,47,0.00,,,0.00,weatherlink.com 1.10,2013-12-02 23:06:00,
2013-12-02 16:21:00,34.4,16.0,29.65,WSW,247,0.0,4.0,48,0.00,,,0.00,weatherlink.com 1.10,2013-12-02 23:21:00,
2013-12-02 16:36:00,33.5,16.0,29.64,ESE,115,0.0,6.0,49,0.00,,,0.00,weatherlink.com 1.10,2013-12-02 23:36:00,
2013-12-02 16:51:00,32.8,16.0,29.64,WSW,250,0.0,5.0,50,0.00,,,0.00,weatherlink.com 1.10,2013-12-02 23:51:00,
2013-12-02 17:06:00,32.9,16.0,29.64,WSW,242,0.0,5.0,50,0.00,,,0.00,weatherlink.com 1.10,2013-12-03 00:06:00,
2013-12-02 17:21:00,32.4,16.0,29.63,SW,229,1.0,7.0,50,0.00,,,0.00,weatherlink.com 1.10,2013-12-03 00:21:00,
2013-12-02 17:36:00,32.8,16.0,29.63,West,266,0.0,4.0,51,0.00,,,0.00,weatherlink.com 1.10,2013-12-03 00:36:00,
2013-12-02 17:51:00,32.5,16.0,29.63,West,264,0.0,2.0,51,0.00,,,0.00,weatherlink.com 1.10,2013-12-03 00:51:00,
2013-12-02 18:06:00,32.1,16.0,29.62,West,281,2.0,4.0,52,0.00,,,0.00,weatherlink.com 1.10,2013-12-03 01:06:00,
2013-12-02 18:21:00,32.8,15.0,29.62,WSW,249,2.0,6.0,49,0.00,,,0.00,weatherlink.com 1.10,2013-12-03 01:21:00,
2013-12-02 18:36:00,33.0,15.0,29.61,West,268,5.0,9.0,48,0.00,,,0.00,weatherlink.com 1.10,2013-12-03 01:36:00,
2013-12-02 18:51:00,33.5,15.0,29.61,WSW,248,0.0,7.0,47,0.00,,,0.00,weatherlink.com 1.10,2013-12-03 01:51:00,
2013-12-02 19:07:00,33.6,15.0,29.61,SW,231,5.0,9.0,47,0.00,,,0.00,weatherlink.com 1.10,2013-12-03 02:07:00,
2013-12-02 19:22:00,33.4,16.0,29.61,WSW,237,0.0,10.0,49,0.00,,,0.00,weatherlink.com 1.10,2013-12-03 02:22:00,
2013-12-02 19:37:00,33.0,16.0,29.61,WSW,257,1.0,15.0,50,0.00,,,0.00,weatherlink.com 1.10,2013-12-03 02:37:00,
2013-12-02 19:53:00,32.6,16.0,29.61,West,276,1.0,7.0,51,0.00,,,0.00,weatherlink.com 1.10,2013-12-03 02:53:00,
2013-12-02 20:06:00,32.8,16.0,29.60,SW,228,12.0,17.0,51,0.00,,,0.00,weatherlink.com 1.10,2013-12-03 03:06:00,
2013-12-02 20:21:00,32.7,17.0,29.60,West,281,4.0,8.0,52,0.00,,,0.00,weatherlink.com 1.10,2013-12-03 03:21:00,
2013-12-02 20:36:00,32.4,17.0,29.59,SSW,200,2.0,6.0,53,0.00,,,0.00,weatherlink.com 1.10,2013-12-03 03:36:00,
2013-12-02 20:51:00,32.3,18.0,29.59,WSW,238,3.0,16.0,55,0.00,,,0.00,weatherlink.com 1.10,2013-12-03 03:51:00,
2013-12-02 21:06:00,32.2,17.0,29.59,West,263,0.0,10.0,54,0.00,,,0.00,weatherlink.com 1.10,2013-12-03 04:06:00,
2013-12-02 21:21:00,32.0,17.0,29.59,SW,227,1.0,12.0,55,0.00,,,0.00,weatherlink.com 1.10,2013-12-03 04:21:00,
2013-12-02 21:36:00,31.8,18.0,29.58,SW,236,0.0,10.0,56,0.00,,,0.00,weatherlink.com 1.10,2013-12-03 04:36:00,
2013-12-02 21:52:00,31.2,16.0,29.57,SW,231,0.0,4.0,54,0.00,,,0.00,weatherlink.com 1.10,2013-12-03 04:52:00,
2013-12-02 22:06:00,31.7,16.0,29.57,WSW,255,0.0,10.0,52,0.00,,,0.00,weatherlink.com 1.10,2013-12-03 05:06:00,
2013-12-02 22:21:00,32.2,15.0,29.56,WSW,250,0.0,6.0,50,0.00,,,0.00,weatherlink.com 1.10,2013-12-03 05:21:00,
2013-12-02 22:36:00,32.4,15.0,29.57,WSW,248,6.0,9.0,49,0.00,,,0.00,weatherlink.com 1.10,2013-12-03 05:36:00,
2013-12-02 22:51:00,33.0,14.0,29.56,SSE,155,11.0,11.0,46,0.00,,,0.00,weatherlink.com 1.10,2013-12-03 05:51:00,
2013-12-02 23:06:00,33.1,14.0,29.56,WSW,258,2.0,9.0,46,0.00,,,0.00,weatherlink.com 1.10,2013-12-03 06:06:00,
2013-12-02 23:21:00,33.2,14.0,29.56,WSW,242,0.0,8.0,46,0.00,,,0.00,weatherlink.com 1.10,2013-12-03 06:21:00,
2013-12-02 23:36:00,32.9,14.0,29.55,ESE,111,0.0,9.0,46,0.00,,,0.00,weatherlink.com 1.10,2013-12-03 06:36:00,
2013-12-02 23:51:00,32.8,14.0,29.54,WSW,250,1.0,6.0,46,0.00,,,0.00,weatherlink.com 1.10,2013-12-03 06:51:00,